Zurück zum Katalog

PRAETORIAN SDA_604

AktivMilitärPO
NORAD 65567·PAYLOAD·🇺🇸 United States

Gestartet Sep 10, 2025 von Vandenberg Space Force Base

Loading…

Nächste Überflüge (nächste 24 Stunden)

TLE

AktuellSource: Space-Track

Epoche: Sep 14, 2026, 11:40 UTC

1 65567U 25203C   26257.48651800  .00000055  00000-0  39698-4 0  9994
2 65567  81.3026 288.5839 0004810 329.0218  31.0654 13.83056380 51026

Verfolge PRAETORIAN SDA_604 in Echtzeit mit AllMySat

Download on the App Store